Time,TemperatureF,DewpointF,PressureIn,WindDirection,WindDirectionDegrees,WindSpeedMPH,WindSpeedGustMPH,Humidity,HourlyPrecipIn,Conditions,Clouds,dailyrainin,SoftwareType,DateUTC
2013-11-14 00:04:00,39.8,30.0,30.25,WNW,284,25.0,33.0,67,0.00,,,0.00,weatherlink.com 1.10,2013-11-14 05:04:00,
2013-11-14 00:19:00,40.1,31.0,30.25,West,269,25.0,34.0,69,0.00,,,0.00,weatherlink.com 1.10,2013-11-14 05:19:00,
2013-11-14 00:34:00,40.9,31.0,30.24,WSW,257,27.0,35.0,69,0.00,,,0.00,weatherlink.com 1.10,2013-11-14 05:34:00,
2013-11-14 00:49:00,41.5,30.0,30.23,West,269,31.0,39.0,65,0.00,,,0.00,weatherlink.com 1.10,2013-11-14 05:49:00,
2013-11-14 01:04:00,41.7,31.0,30.22,West,268,35.0,42.0,65,0.00,,,0.00,weatherlink.com 1.10,2013-11-14 06:04:00,
2013-11-14 01:19:00,42.1,33.0,30.22,West,273,27.0,44.0,71,0.00,,,0.00,weatherlink.com 1.10,2013-11-14 06:19:00,
2013-11-14 01:34:00,42.0,31.0,30.21,WSW,252,29.0,39.0,65,0.00,,,0.00,weatherlink.com 1.10,2013-11-14 06:34:00,
2013-11-14 01:49:00,41.9,33.0,30.21,SW,215,18.0,38.0,70,0.00,,,0.00,weatherlink.com 1.10,2013-11-14 06:49:00,
2013-11-14 02:05:00,40.5,33.0,30.21,WSW,244,20.0,27.0,74,0.00,,,0.00,weatherlink.com 1.10,2013-11-14 07:05:00,
2013-11-14 02:20:00,40.1,32.0,30.21,SSW,206,15.0,28.0,74,0.00,,,0.00,weatherlink.com 1.10,2013-11-14 07:20:00,
2013-11-14 02:35:00,40.2,33.0,30.21,West,270,21.0,28.0,75,0.00,,,0.00,weatherlink.com 1.10,2013-11-14 07:35:00,
2013-11-14 02:50:00,39.9,33.0,30.20,West,259,22.0,27.0,76,0.00,,,0.00,weatherlink.com 1.10,2013-11-14 07:50:00,
2013-11-14 03:06:00,40.2,33.0,30.19,WSW,253,14.0,29.0,76,0.00,,,0.00,weatherlink.com 1.10,2013-11-14 08:06:00,
2013-11-14 03:20:00,40.4,34.0,30.20,SW,236,16.0,26.0,78,0.00,,,0.00,weatherlink.com 1.10,2013-11-14 08:20:00,
2013-11-14 03:35:00,40.8,34.0,30.19,West,269,15.0,28.0,78,0.00,,,0.00,weatherlink.com 1.10,2013-11-14 08:35:00,
2013-11-14 03:50:00,40.7,34.0,30.20,West,265,18.0,27.0,76,0.00,,,0.00,weatherlink.com 1.10,2013-11-14 08:50:00,
2013-11-14 04:05:00,40.3,33.0,30.19,WSW,239,12.0,28.0,76,0.00,,,0.00,weatherlink.com 1.10,2013-11-14 09:05:00,
2013-11-14 04:20:00,39.7,33.0,30.19,SW,215,15.0,27.0,76,0.00,,,0.00,weatherlink.com 1.10,2013-11-14 09:20:00,
2013-11-14 04:35:00,39.7,33.0,30.18,SSW,202,11.0,29.0,77,0.00,,,0.00,weatherlink.com 1.10,2013-11-14 09:35:00,
2013-11-14 04:50:00,39.4,32.0,30.18,SW,222,19.0,28.0,75,0.00,,,0.00,weatherlink.com 1.10,2013-11-14 09:50:00,
2013-11-14 05:05:00,39.1,32.0,30.18,WSW,248,20.0,30.0,76,0.00,,,0.00,weatherlink.com 1.10,2013-11-14 10:05:00,
2013-11-14 05:20:00,38.7,32.0,30.18,WSW,252,23.0,30.0,77,0.00,,,0.00,weatherlink.com 1.10,2013-11-14 10:20:00,
2013-11-14 05:35:00,38.7,32.0,30.18,SW,236,17.0,29.0,77,0.00,,,0.00,weatherlink.com 1.10,2013-11-14 10:35:00,
2013-11-14 05:50:00,39.8,34.0,30.18,WSW,249,20.0,26.0,80,0.00,,,0.00,weatherlink.com 1.10,2013-11-14 10:50:00,
2013-11-14 06:05:00,41.8,36.0,30.18,WNW,288,30.0,33.0,81,0.00,,,0.00,weatherlink.com 1.10,2013-11-14 11:05:00,
2013-11-14 06:20:00,42.7,36.0,30.18,WSW,257,30.0,36.0,78,0.00,,,0.00,weatherlink.com 1.10,2013-11-14 11:20:00,
2013-11-14 06:35:00,42.7,36.0,30.18,WSW,251,25.0,38.0,77,0.00,,,0.00,weatherlink.com 1.10,2013-11-14 11:35:00,
2013-11-14 06:50:00,-999.0,-99.9,30.17,WSW,242,30.0,43.0,-999,0.00,,,0.00,weatherlink.com 1.10,2013-11-14 11:50:00,
2013-11-14 07:05:00,-999.0,-99.9,30.18,West,265,33.0,42.0,-999,0.00,,,0.00,weatherlink.com 1.10,2013-11-14 12:05:00,
2013-11-14 07:20:00,-999.0,-99.9,30.18,West,263,33.0,43.0,-999,0.00,,,0.00,weatherlink.com 1.10,2013-11-14 12:20:00,
2013-11-14 07:35:00,-999.0,-99.9,30.19,West,264,34.0,43.0,-999,0.00,,,0.00,weatherlink.com 1.10,2013-11-14 12:35:00,
2013-11-14 07:50:00,-999.0,-99.9,30.19,West,278,29.0,41.0,-999,0.00,,,0.00,weatherlink.com 1.10,2013-11-14 12:50:00,
2013-11-14 08:05:00,-999.0,-99.9,30.19,West,269,35.0,42.0,-999,0.00,,,0.00,weatherlink.com 1.10,2013-11-14 13:05:00,
2013-11-14 08:20:00,-999.0,-99.9,30.19,WSW,246,39.0,45.0,-999,0.00,,,0.00,weatherlink.com 1.10,2013-11-14 13:20:00,
2013-11-14 08:36:00,-999.0,-99.9,30.20,WSW,258,33.0,41.0,-999,0.00,,,0.00,weatherlink.com 1.10,2013-11-14 13:36:00,
2013-11-14 08:51:00,-999.0,-99.9,30.19,West,276,27.0,42.0,-999,0.00,,,0.00,weatherlink.com 1.10,2013-11-14 13:51:00,
2013-11-14 09:06:00,-999.0,-99.9,30.19,West,267,26.0,38.0,-999,0.00,,,0.00,weatherlink.com 1.10,2013-11-14 14:06:00,
2013-11-14 09:21:00,-999.0,-99.9,30.19,West,264,35.0,38.0,-999,0.00,,,0.00,weatherlink.com 1.10,2013-11-14 14:21:00,
2013-11-14 09:36:00,-999.0,-99.9,30.19,West,267,33.0,39.0,-999,0.00,,,0.00,weatherlink.com 1.10,2013-11-14 14:36:00,
2013-11-14 09:51:00,-999.0,-99.9,30.20,West,267,29.0,35.0,-999,0.00,,,0.00,weatherlink.com 1.10,2013-11-14 14:51:00,
2013-11-14 10:06:00,-999.0,-99.9,30.20,West,265,27.0,37.0,-999,0.00,,,0.00,weatherlink.com 1.10,2013-11-14 15:06:00,
2013-11-14 10:21:00,-999.0,-99.9,30.19,West,261,28.0,35.0,-999,0.00,,,0.00,weatherlink.com 1.10,2013-11-14 15:21:00,
2013-11-14 10:36:00,-999.0,-99.9,30.19,West,269,31.0,38.0,-999,0.00,,,0.00,weatherlink.com 1.10,2013-11-14 15:36:00,
2013-11-14 10:51:00,-999.0,-99.9,30.18,West,267,30.0,37.0,-999,0.00,,,0.00,weatherlink.com 1.10,2013-11-14 15:51:00,
2013-11-14 11:06:00,-999.0,-99.9,30.17,WSW,258,32.0,37.0,-999,0.00,,,0.00,weatherlink.com 1.10,2013-11-14 16:06:00,
2013-11-14 11:21:00,-999.0,-99.9,30.17,WSW,255,28.0,36.0,-999,0.00,,,0.00,weatherlink.com 1.10,2013-11-14 16:21:00,
2013-11-14 11:36:00,-999.0,-99.9,30.16,WSW,250,28.0,35.0,-999,0.00,,,0.00,weatherlink.com 1.10,2013-11-14 16:36:00,
2013-11-14 11:51:00,45.0,32.0,30.16,West,272,25.0,36.0,60,0.00,,,0.00,weatherlink.com 1.10,2013-11-14 16:51:00,
2013-11-14 12:06:00,45.6,34.0,30.16,WSW,254,26.0,33.0,63,0.00,,,0.00,weatherlink.com 1.10,2013-11-14 17:06:00,
2013-11-14 12:22:00,45.9,33.0,30.16,West,267,26.0,33.0,61,0.00,,,0.00,weatherlink.com 1.10,2013-11-14 17:22:00,
2013-11-14 12:37:00,46.2,32.0,30.15,West,263,23.0,36.0,59,0.00,,,0.00,weatherlink.com 1.10,2013-11-14 17:37:00,
2013-11-14 12:52:00,46.5,33.0,30.14,West,259,28.0,34.0,59,0.00,,,0.00,weatherlink.com 1.10,2013-11-14 17:52:00,
2013-11-14 13:07:00,46.9,33.0,30.14,West,269,30.0,34.0,60,0.00,,,0.00,weatherlink.com 1.10,2013-11-14 18:07:00,
2013-11-14 13:22:00,47.3,33.0,30.14,West,259,22.0,35.0,59,0.00,,,0.00,weatherlink.com 1.10,2013-11-14 18:22:00,
2013-11-14 13:37:00,47.6,35.0,30.14,West,259,34.0,34.0,61,0.00,,,0.00,weatherlink.com 1.10,2013-11-14 18:37:00,
2013-11-14 13:52:00,47.9,35.0,30.14,WSW,258,24.0,34.0,61,0.00,,,0.00,weatherlink.com 1.10,2013-11-14 18:52:00,
2013-11-14 14:07:00,48.1,35.0,30.13,West,278,23.0,33.0,60,0.00,,,0.00,weatherlink.com 1.10,2013-11-14 19:07:00,
2013-11-14 14:22:00,48.3,33.0,30.13,West,269,26.0,35.0,57,0.00,,,0.00,weatherlink.com 1.10,2013-11-14 19:22:00,
2013-11-14 14:52:00,49.0,35.0,30.15,WSW,252,21.0,34.0,59,0.00,,,0.00,weatherlink.com 1.10,2013-11-14 19:52:00,
2013-11-14 15:07:00,49.2,34.0,30.15,WSW,258,29.0,37.0,56,0.00,,,0.00,weatherlink.com 1.10,2013-11-14 20:07:00,
2013-11-14 15:22:00,49.5,33.0,30.15,West,269,28.0,33.0,54,0.00,,,0.00,weatherlink.com 1.10,2013-11-14 20:22:00,
2013-11-14 15:37:00,49.5,33.0,30.15,West,279,30.0,35.0,54,0.00,,,0.00,weatherlink.com 1.10,2013-11-14 20:37:00,
2013-11-14 15:52:00,49.7,34.0,30.15,West,259,26.0,33.0,56,0.00,,,0.00,weatherlink.com 1.10,2013-11-14 20:52:00,
2013-11-14 16:07:00,50.2,33.0,30.15,SW,231,22.0,33.0,52,0.00,,,0.00,weatherlink.com 1.10,2013-11-14 21:07:00,
2013-11-14 16:22:00,50.4,33.0,30.15,West,266,29.0,32.0,52,0.00,,,0.00,weatherlink.com 1.10,2013-11-14 21:22:00,
2013-11-14 16:37:00,50.6,33.0,30.15,WNW,295,24.0,33.0,52,0.00,,,0.00,weatherlink.com 1.10,2013-11-14 21:37:00,
2013-11-14 16:52:00,48.8,35.0,30.16,SW,214,20.0,24.0,59,0.00,,,0.00,weatherlink.com 1.10,2013-11-14 21:52:00,
2013-11-14 17:07:00,47.5,34.0,30.16,SW,236,12.0,26.0,60,0.00,,,0.00,weatherlink.com 1.10,2013-11-14 22:07:00,
2013-11-14 17:22:00,47.8,34.0,30.17,SW,226,19.0,26.0,60,0.00,,,0.00,weatherlink.com 1.10,2013-11-14 22:22:00,
2013-11-14 17:37:00,48.1,34.0,30.17,SW,221,21.0,25.0,59,0.00,,,0.00,weatherlink.com 1.10,2013-11-14 22:37:00,
2013-11-14 17:52:00,48.2,33.0,30.18,SW,236,17.0,27.0,56,0.00,,,0.00,weatherlink.com 1.10,2013-11-14 22:52:00,
2013-11-14 18:07:00,48.6,34.0,30.18,West,263,16.0,25.0,58,0.00,,,0.00,weatherlink.com 1.10,2013-11-14 23:07:00,
2013-11-14 18:22:00,49.0,31.0,30.18,WSW,258,22.0,28.0,51,0.00,,,0.00,weatherlink.com 1.10,2013-11-14 23:22:00,
2013-11-14 18:37:00,49.2,32.0,30.19,SW,216,17.0,25.0,52,0.00,,,0.00,weatherlink.com 1.10,2013-11-14 23:37:00,
2013-11-14 18:52:00,49.4,31.0,30.18,WSW,252,28.0,32.0,50,0.00,,,0.00,weatherlink.com 1.10,2013-11-14 23:52:00,
2013-11-14 19:07:00,49.2,32.0,30.19,WSW,252,19.0,30.0,51,0.00,,,0.00,weatherlink.com 1.10,2013-11-15 00:07:00,
2013-11-14 19:22:00,49.4,32.0,30.19,WSW,239,20.0,30.0,51,0.00,,,0.00,weatherlink.com 1.10,2013-11-15 00:22:00,
2013-11-14 19:37:00,49.3,32.0,30.19,WSW,252,23.0,25.0,52,0.00,,,0.00,weatherlink.com 1.10,2013-11-15 00:37:00,
2013-11-14 19:52:00,50.0,34.0,30.19,WSW,242,24.0,30.0,55,0.00,,,0.00,weatherlink.com 1.10,2013-11-15 00:52:00,
2013-11-14 20:07:00,50.6,34.0,30.19,SW,232,25.0,30.0,54,0.00,,,0.00,weatherlink.com 1.10,2013-11-15 01:07:00,
2013-11-14 20:22:00,51.2,34.0,30.19,WSW,240,28.0,35.0,52,0.00,,,0.00,weatherlink.com 1.10,2013-11-15 01:22:00,
2013-11-14 20:37:00,51.5,36.0,30.19,West,261,28.0,39.0,55,0.00,,,0.00,weatherlink.com 1.10,2013-11-15 01:37:00,
2013-11-14 20:52:00,52.0,34.0,30.19,WSW,250,34.0,40.0,51,0.00,,,0.00,weatherlink.com 1.10,2013-11-15 01:52:00,
2013-11-14 21:22:00,52.3,35.0,30.19,West,263,28.0,37.0,52,0.00,,,0.00,weatherlink.com 1.10,2013-11-15 02:22:00,
2013-11-14 21:37:00,51.0,35.0,30.20,WSW,252,17.0,23.0,54,0.00,,,0.00,weatherlink.com 1.10,2013-11-15 02:37:00,
2013-11-14 21:52:00,50.6,34.0,30.20,West,267,18.0,30.0,54,0.00,,,0.00,weatherlink.com 1.10,2013-11-15 02:52:00,
2013-11-14 22:07:00,49.9,34.0,30.20,WSW,243,25.0,26.0,55,0.00,,,0.00,weatherlink.com 1.10,2013-11-15 03:07:00,
2013-11-14 22:22:00,49.7,33.0,30.20,West,261,16.0,26.0,54,0.00,,,0.00,weatherlink.com 1.10,2013-11-15 03:22:00,
2013-11-14 22:37:00,49.6,34.0,30.20,WSW,252,28.0,29.0,55,0.00,,,0.00,weatherlink.com 1.10,2013-11-15 03:37:00,
2013-11-14 22:52:00,49.6,36.0,30.20,West,270,15.0,26.0,59,0.00,,,0.00,weatherlink.com 1.10,2013-11-15 03:52:00,
2013-11-14 23:07:00,50.2,37.0,30.20,WSW,248,15.0,27.0,60,0.00,,,0.00,weatherlink.com 1.10,2013-11-15 04:07:00,
2013-11-14 23:22:00,51.7,37.0,30.20,West,260,25.0,35.0,57,0.00,,,0.00,weatherlink.com 1.10,2013-11-15 04:22:00,
2013-11-14 23:37:00,50.6,36.0,30.20,West,279,15.0,22.0,58,0.00,,,0.00,weatherlink.com 1.10,2013-11-15 04:37:00,
2013-11-14 23:52:00,49.8,36.0,30.20,WSW,247,23.0,26.0,60,0.00,,,0.00,weatherlink.com 1.10,2013-11-15 04:52:00,